Regional Weather Roundup
Issued by NWS

Home | Current Version | Previous Version | Graphics & Text | Print | Product List | Glossary On
Versions: 1 2 3 4 5 6 7 8 9 10 11 12 13 14 15 16 17 18 19 20 21 22 23 24 25 26 27
000
ASUS45 KCYS 101210
RWRWY

WYOMING REGIONAL WEATHER ROUNDUP
NATIONAL WEATHER SERVICE CHEYENNE WY
500 AM MST SAT DEC 10 2016

NOTE:  "FAIR" INDICATES FEW OR NO CLOUDS BELOW 12,000 FEET
WITH NO SIGNIFICANT WEATHER AND/OR OBSTRUCTIONS TO VISIBILITY.

WYZ001-101300-
YELLOWSTONE NATIONAL PARK

CITY           SKY/WX    TMP DP  RH WIND       PRES   REMARKS
LK YELLOWSTONE   N/A     27  24  89 W9        29.80F WCI  18
6HR MIN TEMP:  26; 6HR MAX TEMP:  27; 6HR PCP:  0.05;

W YELLOWSTONE  NOT AVBL

$$
WYZ002>013-054>058-071-098>099-101300-
NORTHERN WYOMING

CITY           SKY/WX    TMP DP  RH WIND       PRES   REMARKS
JACKSON        CLOUDY    32  30  93 SW6       29.83F WCI  26
CODY           FLURRIES  13   8  81 N6        29.80F WCI   4
GREYBULL       FAIR       9   3  77 S3        29.88F
6HR MIN TEMP:   8; 6HR MAX TEMP:   9;

WORLAND        FAIR       5   2  87 CALM      29.87F
6HR MIN TEMP:   2; 6HR MAX TEMP:   6;

SHERIDAN       MOCLDY    10   4  76 W3        29.89F
6HR MIN TEMP:   7; 6HR MAX TEMP:  10;

BUFFALO        MOCLDY     8   1  73 N9        29.81F WCI  -5
6HR MIN TEMP:   8; 6HR MAX TEMP:  11;

GILLETTE       FAIR       2  -3  80 S9        29.89F WCI -13
6HR MIN TEMP:   0; 6HR MAX TEMP:  11;

HULETT         FAIR       1  -4  78 CALM      29.93F
NEWCASTLE      FAIR      -4  -6  92 CALM      29.95F

$$
WYZ014>020-022>026-101>103-101300-
CENTRAL WYOMING

CITY           SKY/WX    TMP DP  RH WIND       PRES   REMARKS
BIG PINEY      FAIR      14  13  95 VRB3      29.89F
6HR MIN TEMP:  14; 6HR MAX TEMP:  19; 6HR PCP: TRACE;

PINEDALE       PTSUNNY   25  25 100 E9        29.91F WCI  15
DUBOIS         CLOUDY    32  27  80 NW7       29.77S WCI  26
LANDER         FAIR      12   6  77 N3        29.79F
6HR MIN TEMP:   9; 6HR MAX TEMP:  16;

RIVERTON       FAIR      10   6  84 NW7       29.82F WCI  -1
6HR MIN TEMP:   9; 6HR MAX TEMP:  15;

CASPER         FAIR      36  26  67 SW28G38   29.80F WCI  23
6HR MIN TEMP:   1; 6HR MAX TEMP:  37;

DOUGLAS        FAIR       5   1  83 CALM      29.85F
6HR MIN TEMP:   5; 6HR MAX TEMP:  14;


$$
WYZ021-027>030-104>119-101300-
SOUTHERN WYOMING

CITY           SKY/WX    TMP DP  RH WIND       PRES   REMARKS
EVANSTON       LGT SNOW  33  30  88 SW16      29.97F VSB 1   WCI  23
6HR MIN TEMP:  29; 6HR MAX TEMP:  38; 6HR PCP: TRACE;

KEMMERER         N/A     34  30  86 SW18      29.94F WCI  23
FORT BRIDGER   FAIR      38  30  74 W17G26    29.96F WCI  28
ROCK SPRINGS   CLOUDY    33  21  61 SW8       29.94F WCI  26
6HR MIN TEMP:  29; 6HR MAX TEMP:  35;

DIXON          PTSUNNY   31  23  71 SW8       30.04F WCI  24
RAWLINS        FAIR      34  21  59 SW20G31   29.91F WCI  23
6HR MIN TEMP:  34; 6HR MAX TEMP:  37;

SARATOGA       CLOUDY    36  23  60 SW14G20   29.96F WCI  27
LARAMIE        MOCLDY    38  20  48 SW23G32     N/A  WCI  27
CHEYENNE       FAIR      32  21  64 S9        29.91F WCI  24
6HR MIN TEMP:  25; 6HR MAX TEMP:  38;

TORRINGTON     FAIR      13   8  81 E7        29.93F WCI   3
6HR MIN TEMP:  13; 6HR MAX TEMP:  14;

PINE BLUFFS    FAIR      21  18  86 SW7       29.94F WCI  13

$$




USA.gov is the U.S. government's official web portal to all federal, state and local government web resources and services.